Regional Weather Roundup
Issued by NWS

Home | Current Version | Previous Version | Graphics & Text | Print | Product List | Glossary On
Versions: 1 2 3 4 5 6 7 8 9 10 11 12 13 14 15 16 17 18 19 20 21 22 23 24 25 26 27 28 29 30 31 32 33 34 35 36 37 38 39 40 41 42 43 44 45 46 47 48 49 50
450
ASUS43 KDTX 292101
RWRMI
MICHIGAN HOURLY REGIONAL WEATHER ROUNDUP
NATIONAL WEATHER SERVICE DETROIT/PONTIAC MI
500 PM EDT THU SEP 29 2016

NOTE: "FAIR" INDICATES FEW OR NO CLOUDS BELOW 12,000 FEET WITH NO
SIGNIFICANT WEATHER AND/OR OBSTRUCTION TO VISIBILITY.

MIZ047>049-052>055-059>063-066>070-074>076-081>083-292200-
SOUTHEAST LOWER MICHIGAN

CITY           SKY/WX    TMP DP  RH WIND       PRES   REMARKS
ADRIAN         CLOUDY    63  60  90 NE15      30.16S
ALMA           CLOUDY    62  58  88 NE12G21   30.26F
ANN ARBOR      RAIN      62  61  96 N9        30.16S FOG
BAD AXE        CLOUDY    60  55  82 NE12G22   30.28S
CARO           CLOUDY    60  57  89 NE6       30.25S
DETROIT CITY   LGT RAIN  61  61 100 NE9       30.18S FOG
DETROIT        HVY RAIN  61  60  97 NE12G21   30.17S FOG
FLINT          CLOUDY    61  58  90 NE14      30.22S
GROSSE ILE     RAIN      61  60  95 NE15G22   30.12F
HILLSDALE      CLOUDY    61  59  94 NE13G18   30.16S
HOWELL         CLOUDY    61  59  93 N7G16     30.20R

CITY           SKY/WX    TMP DP  RH WIND       PRES   REMARKS
JACKSON        RAIN      61  60  97 NE9G18    30.18S
LAMBERTVILLE   RAIN      63  60  91 N8        30.13S
LANSING        CLOUDY    58  56  93 NE14      30.22S
LAPEER         RAIN      61  58  89 NE6       30.23S
MASON          CLOUDY    60  58  94 NE8       30.21R
MONROE         LGT RAIN  61  61  98 N8        30.12F
PONTIAC        DRIZZLE   62  58  86 NE13      30.19R
PORT HURON     LGT RAIN  59  59 100 NE9       30.22S
TRI CITIES     CLOUDY    62  57  83 NE16      30.28S
MIDLAND        CLOUDY    61  55  80 NE7       30.28S
TROY           RAIN      63  60  89 NE7       30.20S
SAGINAW HB     CLOUDY    61  55  82 NE9       30.25S
$$
MIZ043>046-050>051-056>058-064>065-071>073-077>080-292200-
SOUTHWEST LOWER MICHIGAN

CITY           SKY/WX    TMP DP  RH WIND       PRES   REMARKS
BATTLE CREEK   CLOUDY    61  59  93 NE13      30.20S
BENTON HARBOR  PTSUNNY   66  57  72 NE10G20   30.18R
BIG RAPIDS     CLOUDY    65  54  66 E12       30.28R
COLDWATER      CLOUDY    64  59  85 NE13      30.16S
FREMONT        PTSUNNY   65  53  65 E10G17    30.25R
HOLLAND        CLOUDY    63  56  78 NE12G23   30.23R
GRAND RAPIDS   LGT RAIN  60  55  83 NE16      30.24R
IONIA          CLOUDY    59  55  86 NE12G20   30.23S
KALAMAZOO      CLOUDY    62  57  83 NE13G20   30.19S
LUDINGTON      MOSUNNY   71  54  54 NE10G16   30.25S
MARSHALL       RAIN      60  60  98 N6        30.18S
MOUNT PLEASANT CLOUDY    62  54  76 NE14G21   30.28S
MUSKEGON       CLOUDY    64  59  83 E14       30.25R
SOUTH HAVEN    CLOUDY    63  59  87 NE14G20   30.20S
$$
MIZ016>042-292200-
NORTHERN LOWER MICHIGAN

CITY           SKY/WX    TMP DP  RH WIND       PRES   REMARKS
ALPENA         CLOUDY    62  53  72 NE8       30.37F
BEAVER ISLAND  SUNNY     67  55  65 E9        30.38S
BELLAIRE       MOSUNNY   68  52  56 NE9G17    30.33S
CADILLAC       SUNNY     66  50  55 E18G24    30.30R
CHARLEVOIX     SUNNY     66  53  63 NE15G23   30.38S
FRANKFORT      SUNNY     69  54  57 NE10G16   30.30S
GAYLORD        CLOUDY    63  50  62 E13G18    30.36R
GRAYLING       CLOUDY    62  51  68 NE14G24   30.35S
HARBOR SPRINGS MOSUNNY   66  52  61 E13G24    30.37R
HOUGHTON LAKE  CLOUDY    62  51  67 NE15G26   30.32F
MANISTEE       MOSUNNY   70  54  56 NE12      30.27S
OSCODA         CLOUDY    61  55  79 NE13      30.32S
PELLSTON       SUNNY     66  51  58 E15G24    30.38S
ROGERS CITY    CLOUDY    64  55  72 E7        30.39S
TRAVERSE CITY  MOSUNNY   71  52  50 NE15G21   30.29F
$$
MIZ007>008-015-292200-
EASTERN UPPER MICHIGAN

CITY           SKY/WX    TMP DP  RH WIND       PRES   REMARKS
KINROSS        SUNNY     71  49  45 NE12      30.39F
MACKINAC ISLAN SUNNY     66  53  62 E6        30.38S
NEWBERRY       SUNNY     69  50  49 NE10      30.39F
S. S. MARIE    SUNNY     74  47  38 VRB3      30.39S
MUNISING         N/A     63  59  87 N15       30.43S
$$
MIZ004>006-011>014-085-292200-
CENTRAL UPPER MICHIGAN

CITY           SKY/WX    TMP DP  RH WIND       PRES   REMARKS
MANISTIQUE     SUNNY     73  44  36 N8        30.37S
ESCANABA       MOSUNNY   71  56  58 N10G18    30.37S
MENOMINEE      SUNNY     67  56  67 NE12      30.37S
SAWYER-GWINN   MOSUNNY   61  55  82 N15G21    30.45S
$$
MIZ001>003-009>011-084-292200-
WESTERN UPPER MICHIGAN

CITY           SKY/WX    TMP DP  RH WIND       PRES   REMARKS
IRON MOUNTAIN  SUNNY     71  48  43 NE12      30.39F
HOUGHTON       CLOUDY    62  54  74 E5        30.47S
COPPER HARBOR    N/A     56  53  90 NE6       30.48F
$$

ABBREVIATIONS USED IN REMARKS
   TC - TEMPERATURE IN CELSIUS
  WCI - WIND CHILL INDEX
   HX - HEAT INDEX
  VSB - VISIBILITY





USA.gov is the U.S. government's official web portal to all federal, state and local government web resources and services.